EW2785 Weather Reports


time (UTC)temp
C
wind
direction
speed
KPH
gust
KPH
rain 1hr
cm
rain 24hr
cm
rain mn
cm
humidity
%
barometer
mb
20260903120044 17 198 0.0 0.0 0.00 0.00 0.00 89 1013.4
20260903114545 17 198 0.0 0.0 0.00 0.00 0.00 90 1013.3
20260903113041 17 198 0.0 0.0 0.00 0.00 0.00 90 1013.3
20260903111543 17 198 0.0 1.6 0.00 0.00 0.00 89 1013.4
20260903110046 17 198 0.0 0.0 0.00 0.00 0.00 89 1013.4
20260903104543 17 198 0.0 0.0 0.00 0.00 0.00 89 1013.4
20260903103046 17 198 0.0 0.0 0.00 0.00 0.00 89 1013.3
20260903101541 17 198 0.0 1.6 0.00 0.00 0.00 89 1013.2
20260903100038 17 198 0.0 0.0 0.00 0.00 0.00 89 1013.1
20260903094537 17 198 0.0 0.0 0.00 0.00 0.00 89 1013.1
20260903093038 17 198 0.0 0.0 0.00 0.00 0.00 89 1013.0
20260903091534 17 198 0.0 3.2 0.00 0.00 0.00 89 1013.2
20260903090034 17 134 0.0 0.0 0.00 0.00 0.00 89 1013.2
20260903084532 17 134 0.0 0.0 0.00 0.00 0.00 88 1013.3
20260903083036 17 134 0.0 0.0 0.00 0.00 0.00 88 1013.3
20260903081533 17 134 0.0 0.0 0.00 0.00 0.00 88 1013.5
20260903080029 17 134 0.0 0.0 0.00 0.00 0.00 88 1013.8
20260903074528 17 134 0.0 0.0 0.00 0.00 0.00 87 1013.7
20260903073026 17 134 0.0 0.0 0.00 0.00 0.00 87 1013.5
20260903071525 17 134 0.0 1.6 0.00 0.00 0.00 86 1013.7
20260903070023 17 134 0.0 0.0 0.00 0.00 0.00 86 1014.0
20260903064521 17 134 0.0 0.0 0.00 0.00 0.00 85 1013.8
20260903063040 18 134 0.0 0.0 0.00 0.00 0.00 84 1014.0
20260903061520 18 134 0.0 1.6 0.00 0.00 0.00 83 1013.9
20260903060016 18 134 0.0 1.6 0.00 0.00 0.00 83 1014.0
20260903054516 18 134 0.0 6.4 0.00 0.00 0.00 81 1014.2
20260903053011 18 134 1.6 4.8 0.00 0.00 0.00 80 1014.7
20260903051510 18 133 1.6 4.8 0.00 0.00 0.00 78 1014.7
20260903050007 19 140 1.6 8.0 0.00 0.00 0.00 76 1014.7
20260903044506 19 134 0.0 4.8 0.00 0.00 0.00 76 1014.4
20260903043005 19 133 1.6 6.4 0.00 0.00 0.00 76 1014.7
20260903041506 19 136 0.0 6.4 0.00 0.00 0.00 75 1014.5
20260903040003 19 117 0.0 4.8 0.00 0.00 0.00 75 1014.6
20260903034502 19 138 0.0 6.4 0.00 0.00 0.00 75 1014.5
20260903033001 19 123 3.2 9.7 0.00 0.00 0.00 76 1014.5
20260903031559 19 128 3.2 6.4 0.00 0.00 0.00 76 1015.1
20260903030057 19 134 1.6 6.4 0.00 0.00 0.00 77 1015.5
20260903024557 19 121 1.6 6.4 0.00 0.00 0.00 78 1015.5
20260903023055 19 133 1.6 4.8 0.00 0.00 0.00 78 1016.0
20260903021555 19 130 1.6 8.0 0.00 0.00 0.00 78 1016.2
20260903020054 19 148 0.0 3.2 0.00 0.00 0.00 78 1016.2
20260903014554 20 140 0.0 3.2 0.00 0.00 0.00 77 1016.5
20260903013054 20 130 3.2 8.0 0.00 0.00 0.00 77 1016.7
20260903011604 20 141 4.8 11.3 0.00 0.00 0.00 76 1016.6
20260903010052 20 138 0.0 9.7 0.00 0.00 0.00 76 1016.5
20260903004551 20 138 4.8 11.3 0.00 0.00 0.00 77 1016.4
20260903003051 20 117 4.8 12.9 0.00 0.00 0.00 77 1016.4
20260903001551 20 142 1.6 11.3 0.00 0.00 0.00 78 1016.1
20260903000050 20 142 1.6 9.7 0.00 0.00 0.00 77 1016.2
20260902234551 20 137 3.2 9.7 0.00 0.00 0.00 77 1016.0
20260902233055 20 142 3.2 9.7 0.00 0.00 0.00 77 1015.7
20260902231557 20 135 1.6 9.7 0.00 0.00 0.00 77 1015.9
20260902230045 20 133 3.2 8.0 0.00 0.00 0.00 77 1016.5
20260902224552 20 140 3.2 9.7 0.00 0.00 0.00 77 1017.0
20260902223040 20 132 1.6 4.8 0.00 0.00 0.00 77 1017.8
20260902221547 20 127 0.0 6.4 0.00 0.00 0.00 77 1018.1
20260902220037 20 127 1.6 9.7 0.00 0.00 0.00 78 1018.1
20260902214538 20 132 3.2 14.5 0.00 0.00 0.00 78 1018.1
20260902213044 20 123 1.6 8.0 0.00 0.00 0.00 78 1018.3
20260902211546 20 116 1.6 8.0 0.00 0.00 0.00 78 1018.1
20260902210037 20 124 3.2 6.4 0.00 0.00 0.00 78 1018.2
20260902204536 20 123 3.2 9.7 0.00 0.00 0.00 77 1017.8
20260902203035 20 128 1.6 12.9 0.00 0.00 0.00 77 1018.2
20260902201538 20 123 3.2 11.3 0.00 0.00 0.00 76 1018.4
20260902200035 21 119 3.2 8.0 0.00 0.00 0.00 76 1018.1
20260902194534 21 128 4.8 9.7 0.00 0.00 0.00 76 1018.3
20260902193032 20 120 3.2 6.4 0.00 0.00 0.00 76 1018.5
20260902191536 21 119 6.4 11.3 0.00 0.00 0.00 75 1018.8
20260902190032 21 129 3.2 8.0 0.00 0.00 0.00 73 1018.8
20260902184530 21 143 3.2 12.9 0.00 0.00 0.00 73 1018.6
20260902183029 21 144 1.6 9.7 0.00 0.00 0.00 74 1018.7
20260902181529 20 125 0.0 11.3 0.00 0.00 0.00 74 1019.0
20260902180028 21 128 1.6 8.0 0.00 0.00 0.00 72 1019.0
20260902174529 21 130 3.2 9.7 0.00 0.00 0.00 72 1018.9
20260902173027 21 111 3.2 11.3 0.00 0.00 0.00 71 1019.0
20260902171527 21 121 3.2 11.3 0.00 0.00 0.00 70 1018.8
20260902170024 21 123 4.8 11.3 0.00 0.00 0.00 70 1018.9
20260902164526 20 131 4.8 8.0 0.00 0.00 0.00 69 1019.2
20260902163023 20 118 4.8 11.3 0.00 0.00 0.00 70 1019.3
20260902161522 20 134 0.0 8.0 0.00 0.00 0.00 72 1019.5
20260902160018 20 140 1.6 6.4 0.00 0.00 0.00 74 1019.5
20260902154526 20 129 3.2 11.3 0.00 0.00 0.00 73 1019.6
20260902153016 19 134 1.6 8.0 0.00 0.00 0.00 73 1019.9
20260902151515 19 146 1.6 4.8 0.00 0.00 0.00 73 1020.1
20260902150013 19 157 1.6 8.0 0.00 0.00 0.00 73 1020.0
20260902144527 19 119 3.2 8.0 0.00 0.00 0.00 73 1020.1
20260902143016 19 120 1.6 4.8 0.00 0.00 0.00 73 1020.2
20260902141519 19 128 1.6 8.0 0.00 0.00 0.00 73 1020.3
20260902140016 19 128 0.0 6.4 0.00 0.00 0.00 73 1019.9
20260902134513 19 128 1.6 3.2 0.00 0.00 0.00 75 1019.8
20260902133003 18 130 0.0 6.4 0.00 0.00 0.00 74 1019.7
20260902131504 18 130 3.2 8.0 0.00 0.00 0.00 74 1019.4
20260902130001 18 148 0.0 4.8 0.00 0.08 0.00 76 1019.5
20260902124607 18 132 0.0 6.4 0.00 0.08 0.00 76 1019.3
20260902123103 18 159 1.6 4.8 0.00 0.08 0.00 77 1019.4
20260902121608 18 139 0.0 4.8 0.00 0.08 0.00 77 1019.3